Overview Statistics Trail Chart Weather Telemetry Raw packets
 

This is the latest recevied weather packets stored in our database for station/object KE6YLF. If no packets are shown the sender has not sent any weather packets the latest 10 day(s).

<< 19 20 21 22 23 24 25 >>
Time Temp. Humidity Pressure Rain* Wind** Luminosity Snow
1788559092 37.22° C 33% 1075.2 hPa 0 mm - - -
1788558787 36.67° C 33% 1075.1 hPa 0 mm - - -
1788558483 37.22° C 33% 1075.1 hPa 0 mm - - -
1788558178 36.67° C 34% 1075.1 hPa 0 mm - - -
1788557876 37.22° C 33% 1075.4 hPa 0 mm - - -
1788557573 36.11° C 35% 1075.3 hPa 0 mm - - -
1788557268 36.11° C 34% 1075.4 hPa 0 mm - - -
1788556967 37.78° C 31% 1075.4 hPa 0 mm - - -
1788556663 37.78° C 31% 1075.5 hPa 0 mm - - -
1788556357 37.22° C 32% 1075.6 hPa 0 mm - - -
1788556052 37.22° C 32% 1075.7 hPa 0 mm - - -
1788555747 36.11° C 33% 1075.6 hPa 0 mm - - -
1788555443 37.22° C 32% 1075.7 hPa 0 mm - - -
1788555139 36.67° C 33% 1075.7 hPa 0 mm - - -
1788554843 37.22° C 31% 1075.5 hPa 0 mm - - -
1788554526 37.22° C 32% 1075.6 hPa 0 mm - - -
1788554221 36.67° C 33% 1075.9 hPa 0 mm - - -
1788553918 36.67° C 33% 1075.6 hPa 0 mm - - -
1788553613 37.78° C 31% 1075.9 hPa 0 mm - - -
1788553309 37.78° C 31% 1075.8 hPa 0 mm - - -
1788553004 37.22° C 32% 1075.8 hPa 0 mm - - -
1788552699 36.11° C 34% 1075.7 hPa 0 mm - - -
1788552398 37.78° C 32% 1076 hPa 0 mm - - -
1788552093 37.78° C 30% 1075.9 hPa 0 mm - - -
1788551792 37.78° C 32% 1075.9 hPa 0 mm - - -

* Rain latest hour (hover to see other rain measurements)
** Current wind speed in m/s (hover to see current wind gust speed)